Location: Newark
(46.7000°N, 60.6000°W)
Time: 03:51:33
(UTC+00:00)

A-11 Canister half - Pass Details

Date: 03 November 2020
Orbit: 1525 x 1683 km, 47.3° (Epoch: 23 November)

Event Time Altitude Azimuth Distance (km) Brightness Sun altitude
Rises 18:03:19 0° 249° (WSW) 4,814 12.5 20.7°
Reaches altitude 10° 18:06:27 10° 248° (WSW) 3,808 12.2 20.4°
Maximum altitude 18:16:06 82° 163° (SSE) 1,576 9.5 19.4°
Drops below altitude 10° 18:25:29 10° 77° (ENE) 3,709 10.6 18.3°
Sets 18:28:30 0° 77° (ENE) 4,684 11.1 18.0°
